SCP
0 0 0 0 0 0 0 0 0 0 0 0 0 0 0 -0 -0 0 0 0 0 0 0 0 0 0 0 0 0 0 0 0
0 0 0 0 0 0 0 -0 0 0 0 0 0 0 0 0 0 0 -0 0 0 0 0 0 0 0 0 0 0 0 0 0
0 0 0 0 0 0 0 0 -0 0 0 0 0 0 -0 -0 -0 -0 -0 0 -0 0 0 0 0 0 0 0 0 0 0 0
0 0 0 0 0 0 0 -0 -0 -0 -0 0 0 0 0 -0 -0 -0 -0 -0 -0 -0 -0 -0 0 0 0 0 0 0 0 0
0 0 0 0 0 0 -0 0 0 -0 -0 -0 -0 0 0 -0 0 0 0 0 0 0 0 0 0 0 0 0 0 0 0 0
0 0 0 0 0 0 -0 -0 -0 -0 -0 -0 -0 -0 -0 0 0 0 0 0 0 0 0 0 0 0 0 0 0 0 -0 -0
0 0 0 -0 -0 -0 -0 -0 -0 -0 -0 -0 -0 -0 -0 -0 0 0 0 0 0 0 0 0 0 0 0 0 0 0 0 0
0 0 0 0 -0 -0 -0 -0 -0 -0 -0 -0 -0 -0 -0 -0 0 0 0 0 0 0 0 0 0 0 0 0 0 0 0 0
0 0 0 0 -0 -0 -0 -0 -0 -0 -0 -0 -0 -0 -0 -0 -0 0 0 0 0 0 0 0 0 0 0 0 0 0 0 0
0 0 0 0 -0 -0 -0 -0 -0 -0 -0 -0 -0 -0 -0 -0 -0 -0 -0 0 0 0 0 0 0 0 0 0 0 0 0 0
0 0 -0 0 0 -0 -0 -0 -0 0 0 0 0 -0 -0 -0 -0 0 0 0 0 0 0 0 0 0 0 0 0 0 -0 0
-0 0 0 -0 0 0 0 0 0 0 0 0 0 0 0 0 0 0 0 0 0 0 0 0 0 0 0 0 0 0 0 0
-0 0 -0 -0 -0 0 0 -0 -0 -0 0 0 0 0 0 0 0 0 0 0 0 0 0 0 0 0 0 0 0 0 0 0
0 0 0 0 0 0 0 -0 0 0 0 0 0 0 0 0 0 0 0 0 0 0 0 0 0 0 0 0 0 0 0 0
0 0 0 0 0 0 -0 0 0 0 0 0 0 0 0 0 0 0 0 0 0 0 0 0 0 0 0 0 0 0 0 0
0 0 0 0 0 0 0 0 0 0 0 0 0 0 0 0 0 0 0 0 0 0 0 0 0 0 0 0 0 0 0 0
0 0 0 0 0 0 0 0 0 0 0 0 0 0 0 0 0 0 0 0 0 0 0 0 0 0 0 0 0 0 0 0
0 0 0 0 0 0 -0 0 0 0 0 0 0 0 0 0 0 0 0 0 0 0 0 0 0 0 0 0 0 0 0 0
0 0 0 0 0 0 0 0 0 0 0 0 0 0 0 0 0 0 0 0 0 0 0 0 0 0 0 0 0 0 0 0
0 0 0 0 0 0 0 0 0 0 0 0 0 0 0 0 0 0 0 0 0 0 0 0 0 0 0 0 0 0 0 0
Wind_Speed_500mb
58 42 48 53 54 71 81 76 75 76 73 70 67 68 58 62 61 63 65 62 52 43 46 38 38 40 35 36 39 35 37 33
54 57 57 59 71 92 94 83 88 91 92 95 93 86 74 70 72 70 69 65 54 58 61 52 44 50 48 47 44 43 44 43
58 59 60 58 83 104 97 93 88 92 95 100 101 95 87 84 78 73 76 76 75 71 71 67 64 60 58 57 52 49 47 47
68 56 62 81 95 99 98 92 86 88 91 94 97 99 98 93 86 81 82 83 79 77 77 75 70 65 61 58 56 53 51 48
67 63 67 92 103 98 101 92 93 94 97 101 101 97 96 94 88 86 85 84 79 78 76 74 69 64 60 57 54 51 49 49
53 60 82 99 93 96 99 98 97 100 101 103 99 95 90 88 86 80 80 79 74 72 72 70 67 62 55 53 52 52 51 51
60 76 86 81 84 93 97 97 95 97 99 94 92 89 86 83 81 77 77 72 67 68 66 65 62 53 51 50 49 48 47 50
60 73 72 80 87 94 96 93 94 94 91 88 84 84 80 74 70 70 69 64 66 63 59 59 54 47 45 44 49 52 51 51
67 69 73 79 84 85 86 88 88 88 85 81 77 77 71 68 70 67 62 60 59 57 52 47 46 45 46 46 47 49 49 53
64 69 72 77 79 81 82 82 80 80 78 74 70 69 66 68 64 59 54 53 53 48 44 45 46 42 44 47 52 54 54 59
61 66 71 72 71 75 78 75 76 70 68 63 61 60 60 56 52 50 48 47 44 42 43 42 39 43 50 55 55 59 61 61
59 64 64 63 63 69 68 69 65 62 59 57 55 53 51 48 47 44 43 41 39 40 39 38 39 47 51 54 58 60 58 62
54 56 55 54 54 61 62 59 54 52 50 50 49 47 43 40 39 37 37 37 33 32 32 37 45 47 47 52 57 60 63 66
49 51 52 50 47 51 55 49 46 44 44 42 39 36 34 31 32 31 30 31 29 25 31 37 38 39 44 51 56 60 61 60
44 46 47 45 44 46 47 43 39 40 40 38 34 31 31 31 29 27 24 24 28 30 30 27 30 42 50 52 53 53 55 57
42 42 43 42 41 41 39 34 31 32 34 32 30 29 27 23 20 21 27 31 30 30 29 31 33 37 42 50 56 58 57 55
41 39 39 39 38 37 33 29 27 28 28 27 25 21 18 15 16 18 20 21 20 18 21 25 32 37 41 45 46 46 44 46
40 38 37 36 35 34 32 27 23 22 23 21 19 17 15 14 13 14 15 20 24 26 27 29 31 34 39 42 41 41 43 45
40 38 35 33 31 30 28 24 19 16 16 15 14 14 15 16 16 15 17 24 29 30 29 31 34 38 43 44 44 45 46 46
42 39 36 33 30 27 25 21 15 12 10 8 9 11 13 16 20 23 24 28 34 39 39 35 37 41 45 48 50 50 48 45
Wind_Direction_500mb
43 77 96 103 123 114 112 113 111 112 110 105 102 102 100 108 110 108 107 108 113 108 110 98 105 99 100 93 101 100 90 80
45 71 90 98 100 106 111 117 110 110 114 113 110 106 109 107 108 106 106 101 101 108 107 107 105 98 98 96 88 81 78 73
50 69 83 79 98 105 108 115 111 112 111 107 107 109 110 110 108 107 104 103 103 100 98 97 92 88 85 85 85 79 72 66
59 62 71 81 97 102 105 108 108 108 106 105 103 103 103 103 102 100 98 96 95 94 91 89 86 83 80 76 71 65 58 52
48 57 75 87 97 100 104 107 107 106 104 101 99 100 100 102 102 100 99 97 93 90 89 85 80 75 71 66 62 56 49 42
45 56 79 90 93 98 102 102 104 102 100 98 100 100 101 100 96 97 94 91 91 90 86 81 75 68 63 57 52 45 39 34
60 69 83 88 90 98 100 100 100 98 97 100 101 101 99 95 97 96 92 91 89 84 81 77 70 61 54 48 43 39 33 28
66 78 78 89 98 98 100 101 99 98 99 98 98 96 96 97 95 90 89 88 84 80 74 70 64 54 49 43 38 32 26 20
85 89 93 97 98 100 101 100 100 100 99 99 98 97 98 95 90 90 89 83 78 75 71 67 62 51 43 37 32 26 20 13
95 97 98 99 102 103 101 100 98 97 97 97 96 96 96 91 89 87 85 83 76 72 67 61 54 45 39 32 27 20 16 9
104 104 105 105 105 103 100 98 95 96 96 97 98 96 91 91 91 87 82 80 74 68 59 52 45 38 32 27 19 15 10 3
108 105 103 105 106 103 103 99 100 102 102 101 99 96 96 96 91 87 81 75 69 60 54 47 39 35 27 19 15 10 3 356
110 107 108 109 108 103 100 102 105 105 103 100 97 95 92 89 87 82 75 66 63 56 47 40 35 27 19 14 10 4 359 355
117 116 114 111 107 107 105 108 108 107 103 97 94 94 94 92 86 79 70 59 55 52 41 35 27 17 11 9 3 359 355 351
127 124 120 118 116 112 114 116 119 114 109 106 105 100 90 82 77 68 64 53 43 38 33 25 15 10 6 2 357 354 352 351
141 137 130 126 123 119 118 115 109 103 99 97 91 83 77 75 72 60 45 36 30 24 15 9 6 2 359 357 355 353 352 349
155 151 143 137 131 125 120 118 115 111 104 97 93 92 89 76 60 49 40 31 22 11 7 4 0 358 356 354 351 348 345 348
166 162 155 148 143 135 130 126 119 110 106 101 96 90 82 71 57 42 29 19 14 9 4 1 356 354 355 353 350 348 350 355
176 173 167 160 154 149 144 137 134 126 111 101 90 77 63 52 42 27 14 10 8 5 0 358 355 354 353 352 350 351 354 357
187 186 181 176 174 173 165 159 162 150 131 109 79 57 40 29 23 15 7 4 1 358 356 356 351 353 351 348 349 352 354 355
Wind_Speed_850mb
58 42 48 53 54 71 81 76 75 76 73 70 67 68 58 62 61 63 65 62 52 43 46 38 38 40 35 36 39 35 37 33
54 57 57 59 71 92 94 83 88 91 92 95 93 86 74 70 72 70 69 65 54 58 61 52 44 50 48 47 44 43 44 43
58 59 60 58 83 104 97 93 88 92 95 100 101 95 87 84 78 73 76 76 75 71 71 67 64 60 58 57 52 49 47 47
68 56 62 81 95 99 98 92 86 88 91 94 97 99 98 93 86 81 82 83 79 77 77 75 70 65 61 58 56 53 51 48
67 63 67 92 103 98 101 92 93 94 97 101 101 97 96 94 88 86 85 84 79 78 76 74 69 64 60 57 54 51 49 49
53 60 82 99 93 96 99 98 97 100 101 103 99 95 90 88 86 80 80 79 74 72 72 70 67 62 55 53 52 52 51 51
60 76 86 81 84 93 97 97 95 97 99 94 92 89 86 83 81 77 77 72 67 68 66 65 62 53 51 50 49 48 47 50
60 73 72 80 87 94 96 93 94 94 91 88 84 84 80 74 70 70 69 64 66 63 59 59 54 47 45 44 49 52 51 51
67 69 73 79 84 85 86 88 88 88 85 81 77 77 71 68 70 67 62 60 59 57 52 47 46 45 46 46 47 49 49 53
64 69 72 77 79 81 82 82 80 80 78 74 70 69 66 68 64 59 54 53 53 48 44 45 46 42 44 47 52 54 54 59
61 66 71 72 71 75 78 75 76 70 68 63 61 60 60 56 52 50 48 47 44 42 43 42 39 43 50 55 55 59 61 61
59 64 64 63 63 69 68 69 65 62 59 57 55 53 51 48 47 44 43 41 39 40 39 38 39 47 51 54 58 60 58 62
54 56 55 54 54 61 62 59 54 52 50 50 49 47 43 40 39 37 37 37 33 32 32 37 45 47 47 52 57 60 63 66
49 51 52 50 47 51 55 49 46 44 44 42 39 36 34 31 32 31 30 31 29 25 31 37 38 39 44 51 56 60 61 60
44 46 47 45 44 46 47 43 39 40 40 38 34 31 31 31 29 27 24 24 28 30 30 27 30 42 50 52 53 53 55 57
42 42 43 42 41 41 39 34 31 32 34 32 30 29 27 23 20 21 27 31 30 30 29 31 33 37 42 50 56 58 57 55
41 39 39 39 38 37 33 29 27 28 28 27 25 21 18 15 16 18 20 21 20 18 21 25 32 37 41 45 46 46 44 46
40 38 37 36 35 34 32 27 23 22 23 21 19 17 15 14 13 14 15 20 24 26 27 29 31 34 39 42 41 41 43 45
40 38 35 33 31 30 28 24 19 16 16 15 14 14 15 16 16 15 17 24 29 30 29 31 34 38 43 44 44 45 46 46
42 39 36 33 30 27 25 21 15 12 10 8 9 11 13 16 20 23 24 28 34 39 39 35 37 41 45 48 50 50 48 45
Wind_Direction_850mb
43 77 96 103 123 114 112 113 111 112 110 105 102 102 100 108 110 108 107 108 113 108 110 98 105 99 100 93 101 100 90 80
45 71 90 98 100 106 111 117 110 110 114 113 110 106 109 107 108 106 106 101 101 108 107 107 105 98 98 96 88 81 78 73
50 69 83 79 98 105 108 115 111 112 111 107 107 109 110 110 108 107 104 103 103 100 98 97 92 88 85 85 85 79 72 66
59 62 71 81 97 102 105 108 108 108 106 105 103 103 103 103 102 100 98 96 95 94 91 89 86 83 80 76 71 65 58 52
48 57 75 87 97 100 104 107 107 106 104 101 99 100 100 102 102 100 99 97 93 90 89 85 80 75 71 66 62 56 49 42
45 56 79 90 93 98 102 102 104 102 100 98 100 100 101 100 96 97 94 91 91 90 86 81 75 68 63 57 52 45 39 34
60 69 83 88 90 98 100 100 100 98 97 100 101 101 99 95 97 96 92 91 89 84 81 77 70 61 54 48 43 39 33 28
66 78 78 89 98 98 100 101 99 98 99 98 98 96 96 97 95 90 89 88 84 80 74 70 64 54 49 43 38 32 26 20
85 89 93 97 98 100 101 100 100 100 99 99 98 97 98 95 90 90 89 83 78 75 71 67 62 51 43 37 32 26 20 13
95 97 98 99 102 103 101 100 98 97 97 97 96 96 96 91 89 87 85 83 76 72 67 61 54 45 39 32 27 20 16 9
104 104 105 105 105 103 100 98 95 96 96 97 98 96 91 91 91 87 82 80 74 68 59 52 45 38 32 27 19 15 10 3
108 105 103 105 106 103 103 99 100 102 102 101 99 96 96 96 91 87 81 75 69 60 54 47 39 35 27 19 15 10 3 356
110 107 108 109 108 103 100 102 105 105 103 100 97 95 92 89 87 82 75 66 63 56 47 40 35 27 19 14 10 4 359 355
117 116 114 111 107 107 105 108 108 107 103 97 94 94 94 92 86 79 70 59 55 52 41 35 27 17 11 9 3 359 355 351
127 124 120 118 116 112 114 116 119 114 109 106 105 100 90 82 77 68 64 53 43 38 33 25 15 10 6 2 357 354 352 351
141 137 130 126 123 119 118 115 109 103 99 97 91 83 77 75 72 60 45 36 30 24 15 9 6 2 359 357 355 353 352 349
155 151 143 137 131 125 120 118 115 111 104 97 93 92 89 76 60 49 40 31 22 11 7 4 0 358 356 354 351 348 345 348
166 162 155 148 143 135 130 126 119 110 106 101 96 90 82 71 57 42 29 19 14 9 4 1 356 354 355 353 350 348 350 355
176 173 167 160 154 149 144 137 134 126 111 101 90 77 63 52 42 27 14 10 8 5 0 358 355 354 353 352 350 351 354 357
187 186 181 176 174 173 165 159 162 150 131 109 79 57 40 29 23 15 7 4 1 358 356 356 351 353 351 348 349 352 354 355